Other Public Products
Issued by NWS Grand Forks, ND

Home | Current Version | Previous Version | Text Only | Print | Product List | Glossary Off
Versions: 1 2 3 4 5 6 7 8 9 10 11 12 13 14 15 16 17 18 19 20 21 22 23 24 25 26 27 28 29 30 31 32 33 34 35 36 37 38 39 40 41 42 43 44 45 46 47 48 49 50

000
FPUS83 KFGF 241031
OPUFGF
PRAIRIE TO PINES WEATHER ROUNDUP
NATIONAL WEATHER SERVICE EASTERN NORTH DAKOTA/GRAND FORKS ND
500 AM CDT SUN MAY 24 2015

 **SATELLITE DATA USED TO AUGMENT SKY COVER AT AUTOMATED STATIONS**
 *****  WEATHER ACROSS EASTERN NORTH DAKOTA  *****

CITY           SKY/WX    TMP DP  RH WIND       PRES   REMARKS
GRAND FORKS    CLEAR     47  43  86 CALM      30.08F
GRAND FORKS AF CLEAR     47  44  88 S1        30.08F
GRAND CITY NWS   N/A     43 N/A N/A SW2         N/A
BUXTON           N/A     51  49  93 CALM        N/A
DEVILS LAKE    PTCLDY    48  43  81 CALM      30.07F
FARGO          PTCLDY    52  47  83 CALM      30.08S
WAHPETON ARPT  CLOUDY    59  45  58 E5        30.06F
$$

 *****  WEATHER ACROSS CENTRAL AND WESTERN NORTH DAKOTA  *****

CITY           SKY/WX    TMP DP  RH WIND       PRES   REMARKS
JAMESTOWN      PTCLDY    51  49  92 NE6       30.07F
BISMARCK       MOCLDY    55  51  86 NE3       30.07F
MINOT          PTCLDY    48  44  86 CALM      30.08F
MINOT AFB      PTCLDY    46  46 100 W1        30.08S
GARRISON         N/A     53  49  86 CALM      30.08F
WILLISTON      PTCLDY    45  41  86 CALM      30.08F
DICKINSON      CLOUDY    48  46  93 NE5       30.05F
HETTINGER      CLOUDY    49  47  93 NE8       30.05F
$$

 *****  OTHER OBSERVATIONS NORTHEAST NORTH DAKOTA  *****

CITY           SKY/WX    TMP DP  RH WIND       PRES   REMARKS
WALHALLA         N/A     57  45  62 CALM      30.08S
LANGDON        FAIR      46  43  87 CALM      30.10S
CAVALIER       FAIR      50  46  87 S6        30.08S
GRAFTON        FAIR      48  48 100 CALM      30.09S
CANDO          FAIR      46  45  93 CALM      30.10F
FORT TOTTEN      N/A     50  44  81 CALM      29.95S
ROLLA          FAIR      50  43  76 W7        30.11S
RUGBY          NOT AVBL
 ***** THE ABOVE OBSERVATIONS ARE NON NWS ARE NOT QUALITY
        CONTROLLED AND MAY MIS-REPORT RAIN FOR SNOW...
$$

 *****  OTHER OBSERVATIONS SOUTHEAST NORTH DAKOTA *****

CITY           SKY/WX    TMP DP  RH WIND       PRES   REMARKS
COOPERSTOWN    NOT AVBL
VALLEY CITY    FAIR      50  50 100 CALM      30.08F
OAKES            N/A     52  52 100 CALM      30.05F
GWINNER        NOT AVBL
SHEYENNE NWR     N/A     52  48  85 NE3       29.95S
BUFFALO        NOT AVBL
WYNDMERE         N/A     57  48  72 E5          N/A
 ***** THE ABOVE OBSERVATIONS ARE NON NWS ARE NOT QUALITY
       CONTROLLED AND MAY MIS-REPORT RAIN FOR SNOW...
$$

  *****  WEATHER ACROSS NORTHERN MINNESOTA  *****

CITY           SKY/WX    TMP DP  RH WIND       PRES   REMARKS
FLAG ISLAND    CLEAR     55  45  67 SW3       30.08S
WARROAD        CLEAR     50  45  81 SW3       30.11S
ROSEAU         CLEAR     50  43  76 CALM      30.10F
HALLOCK        CLEAR     48  45  87 SE8       30.08F
THF RVR FALLS  CLEAR     46  43  87 CALM      30.11S
HALSTAD          N/A     48  43  83 E5          N/A
FOSSTON        PTCLDY    46  41  81 CALM      30.11F
BAUDETTE       CLEAR     49  43  80 S3        30.10F
WASKISH        PTCLDY    46  43  87 CALM      30.11F
CROOKSTON      CLEAR     48  43  81 CALM      30.10F
$$
  *****  WEATHER ACROSS CENTRAL AND WEST MINNESOTA  *****

CITY           SKY/WX    TMP DP  RH WIND       PRES   REMARKS
BEMIDJI        PTCLDY    42  40  93 CALM      30.12S
PARK RAPIDS    CLOUDY    55  47  74 NE3       30.11F
WADENA         CLOUDY    55  48  76 NE3       30.10F
DETROIT LAKES  MOCLDY    54  46  76 E3        30.11F
MOORHEAD       MOCLDY    55  46  71 E3        30.09F
FERGUS FALLS   CLOUDY    61  45  55 E5        30.07F
ELBOW LAKE     CLOUDY    60  47  64 E6        30.06F
MORRIS MN      CLOUDY    57  48  72 E8        30.04F
STAPLES        CLOUDY    55  46  71 CALM      30.10F
WHEATON        CLOUDY    54  46  76 E5        30.06F
$$
  *****  WEATHER ELSEWHERE ACROSS MINNESOTA  *****

CITY           SKY/WX    TMP DP  RH WIND       PRES   REMARKS
DULUTH         MOCLDY    47  42  83 CALM      30.14F
INTRNTL FALLS  CLEAR     44  41  89 SW3       30.11F
ELY            PTCLDY    46  39  76 CALM      30.14F
CLOQUET        MOCLDY    48  43  81 CALM      30.14S
BRAINERD       CLOUDY    56  47  71 CALM      30.11F
HIBBING        PTCLDY    39  36  89 CALM      30.14F
ALEXANDRIA     CLOUDY    59  45  59 E8        30.09F
SAINT CLOUD    CLOUDY    58  47  66 E5        30.07F
MINNEAPOLIS    CLOUDY    61  48  62 E6        30.08F
$$

  *****  WEATHER ACROSS SOUTH DAKOTA  *****

CITY           SKY/WX    TMP DP  RH WIND       PRES   REMARKS
SIOUX FALLS    DRIZZLE   58  57  97 E12       29.97F
BROOKINGS      CLOUDY    57  55  94 E5        30.01F
WATERTOWN      CLOUDY    56  48  74 E5        30.03F
HURON          CLOUDY    55  53  93 NE5       29.99F FOG
SISSETON         N/A     54  49  83 SE3       30.04F
ABERDEEN       CLOUDY    55  49  80 NE7       30.03F
MITCHELL       CLOUDY    58  56  93 E5        29.97F FOG
PIERRE         CLOUDY    54  53  97 NE7       29.98F
MOBRIDGE       CLOUDY    56  52  86 E12       30.01F
RAPID CITY     LGT RAIN  53  52  96 E10       29.97F
$$

  *****  SOME WEATHER IN NEARBY STATES *****

CITY           SKY/WX    TMP DP  RH WIND       PRES   REMARKS
GLASGOW MT     CLEAR     46  39  76 NE7       30.08S
GREAT FALLS MT FOG       44  43  96 SW3       30.10S VSB 1/2
CHEYENNE WY    PTCLDY    40  39  97 W3        29.91F FOG
SCOTTSBLUFF NE CLOUDY    52  51  97 CALM      29.90F
OMAHA NE       CLOUDY    61  59  93 E12       29.90F
DES MOINES IA  LGT RAIN  61  57  87 SE10      29.99F
DAVENPORT IA   LGT RAIN  61  53  75 SE7       30.14F
CHICAGO IL     CLOUDY    61  48  62 SE3       30.19S
EAU CLAIRE WI  CLOUDY    56  46  69 NE7       30.11F
LA CROSSE WI   CLOUDY    58  49  72 SE8       30.10F
$$

  *****  SOME NATIONAL WEATHER *****

CITY           SKY/WX    TMP DP  RH WIND       PRES   REMARKS
LA GUARDIA NY  PTCLDY    56  40  55 S6        30.35R
RALEIGH NC     CLEAR     56  53  90 CALM      30.41R
ATLANTA GA     PTCLDY    63  55  75 SE7       30.33R
NEW ORLEANS LA PTCLDY    77  72  84 SE9       30.07F
OKLAHOMA CITY  CLOUDY    60  59  96 S10       29.88R
ALBUQUERQUE NM CLEAR     52  35  52 N5        30.01S
SALT LAKE CITY MOCLDY    50  43  77 SE6       29.95F
LOS ANGELES CA CLOUDY    59  51  75 CALM      30.00S
BOISE ID       LGT RAIN  58  50  75 E9        29.93F
SEATTLE WA     CLOUDY    53  49  86 S7        30.17F
$$

*** WEATHER ACROSS MANITOBA...SASKATCHEWAN AND ONTARIO ***
                ***ONTARIO***

CITY           SKY/WX    TMP DP  RH WIND       PRES   REMARKS
GERALDTON      CLEAR     43  39  87 E3        30.05S
THUNDER BAY    PTCLDY    45  41  87 W5        30.09R
SIOUX LOOKOUT  PTCLDY    45  41  87 S3        30.05R
TORONTO        PTCLDY    54  32  43 W8        30.25R
BIG TROUT LK   CLEAR     36  30  80 W6        30.02F
PICKLE LAKE    NOT AVBL
DRYDEN         CLEAR     52  39  62 SW10      30.06S
KENORA         CLEAR     52  41  66 SW6       30.08F
$$
                *** MANITOBA***

CITY           SKY/WX    TMP DP  RH WIND       PRES   REMARKS
BRANDON        PTCLDY    48  41  76 E5        30.08S
DAUPHIN        CLEAR     43  39  87 W6        30.09F
ISLAND LAKE    PTCLDY    41  32  70 SW5       30.08F
PILOT MOUND      N/A     45  43  93 S5          N/A
THE PAS        PTCLDY    41  37  87 S5        30.10F
THOMPSON       PTCLDY    39  27  60 W3        30.03F
WINNIPEG       CLEAR     52  43  71 S8        30.06F
LYNN LAKE      CLEAR     45  23  42 W8        30.03F
CHURCHILL      CLOUDY    36  32  87 NW17G24   29.88S
$$
                ***SASKATCHEWAN***

CITY           SKY/WX    TMP DP  RH WIND       PRES   REMARKS
ESTEVAN        PTCLDY    46  41  81 SW5       30.08F
KINDERSLEY     MOCLDY    48  28  46 S5        30.10S
LLOYDMINSTER   CLEAR     52  41  66 E3        30.07F
PRINCE ALBERT  PTCLDY    45  41  87 NE3       30.07F
REGINA         PTCLDY    45  37  76 S3        30.08F
YORKTON        CLEAR     46  45  93 CALM      30.08F



USA.gov is the U.S. government's official web portal to all federal, state and local government web resources and services.